M I D A S
Marine Information and Data Acquisition System
Tripno 917 of the Zeeleeuw from 2005-06-15 06:13:24 to 2005-06-15 14:31:44
Back to CruiseResearch ActivitiesStationsMapUnderway DataData graphs

EquipmentUnitsComments
TimeDGPSUTC
LatitudeDGPSDM.mWGS84
LongitudeDGPSDM.mWGS84
SpeedMeteo Stationm/sRelative wind speed
DirectionMeteo StationdegRelative wind direction
TemperatureMeteo Stationdeg CelciusAir temperature
PressureMeteo StationPaAtmospheric pressure
HumidityMeteo Station%Relative humidity
Missing or incorrect values are displayed as -999
Metereological data collected by the RV Zeeleeuw from 2005-06-15 06:12:57 to 2005-06-15 14:43:59
Time Latitude Longitude Speed Direction Temperature Pressure Humidity
2005-06-15 06:14 51°13.602 2°56.085 2.4 78 13.8 101610 64
2005-06-15 06:15 51°13.604 2°56.07 4.9 47 13.8 101610 63
2005-06-15 06:16 51°13.574 2°56.121 6.1 35 13.8 101610 62
2005-06-15 06:17 51°13.547 2°56.193 4.3 47 13.8 101610 63
2005-06-15 06:18 51°13.555 2°56.239 3.6 148 13.9 101610 63
2005-06-15 06:19 51°13.549 2°56.227 2.7 164 13.8 101610 62
2005-06-15 06:20 51°13.541 2°56.229 2.3 179 13.9 101610 62
2005-06-15 06:21 51°13.533 2°56.237 2.6 198 14 101620 63
2005-06-15 06:22 51°13.556 2°56.16 2.4 325 14.1 101620 61
2005-06-15 06:23 51°13.6 2°56.009 3 317 14.2 101620 61
2005-06-15 06:24 51°13.671 2°55.86 3.2 352 14.3 101610 61
2005-06-15 06:25 51°13.755 2°55.718 2.8 283 14.3 101610 61
2005-06-15 06:26 51°13.877 2°55.605 1.3 328 14.4 101610 60
2005-06-15 06:27 51°14.026 2°55.514 2 312 14.4 101610 60
2005-06-15 06:28 51°14.158 2°55.397 2.4 324 14.4 101610 60
2005-06-15 06:29 51°14.272 2°55.235 3.1 328 14.5 101610 60
2005-06-15 06:30 51°14.394 2°55.024 4.4 346 14.5 101600 59
2005-06-15 06:31 51°14.582 2°54.851 4.1 349 14.6 101600 61
2005-06-15 06:32 51°14.778 2°54.67 3.8 345 14.5 101600 62
2005-06-15 06:33 51°14.973 2°54.485 3.7 329 14.5 101600 63
2005-06-15 06:34 51°15.163 2°54.288 4 325 14.4 101590 62
2005-06-15 06:35 51°15.359 2°54.094 3.1 330 14.3 101600 62
2005-06-15 06:36 51°15.563 2°53.916 2.6 325 14.3 101600 62
2005-06-15 06:37 51°15.771 2°53.755 2.1 332 14.3 101600 62
2005-06-15 06:38 51°15.978 2°53.599 1.9 338 14.4 101600 62
2005-06-15 06:39 51°16.185 2°53.443 2.4 334 14.5 101600 63
2005-06-15 06:40 51°16.392 2°53.29 2.4 229 14.5 101600 62
2005-06-15 06:41 51°16.596 2°53.127 1.8 285 14.6 101590 63
2005-06-15 06:42 51°16.799 2°52.962 1.5 279 14.6 101590 62
2005-06-15 06:43 51°17 2°52.791 1.9 306 14.6 101590 62
2005-06-15 06:44 51°17.205 2°52.626 0.8 333 14.6 101590 63
2005-06-15 06:45 51°17.431 2°52.535 1.6 64 14.6 101590 62
2005-06-15 06:46 51°17.665 2°52.52 2.4 77 14.6 101590 62
2005-06-15 06:47 51°17.902 2°52.522 3.5 63 14.5 101590 63
2005-06-15 06:48 51°18.128 2°52.634 5.3 54 14.4 101580 65
2005-06-15 06:49 51°18.32 2°52.854 6.7 57 14.4 101580 64
2005-06-15 06:50 51°18.487 2°53.126 6.7 44 14.3 101570 65
2005-06-15 06:51 51°18.631 2°53.428 9.2 41 14.3 101570 66
2005-06-15 06:52 51°18.728 2°53.773 9.9 46 14.4 101570 65
2005-06-15 06:53 51°18.815 2°54.128 10.3 41 14.4 101560 62
2005-06-15 06:54 51°18.896 2°54.479 10.4 46 14.4 101560 64
2005-06-15 06:55 51°18.979 2°54.833 9.2 42 14.4 101570 63
2005-06-15 06:56 51°19.064 2°55.18 8.3 41 14.5 101570 63
2005-06-15 06:57 51°19.153 2°55.54 9.5 38 14.5 101570 64
2005-06-15 06:58 51°19.243 2°55.899 10.1 36 14.5 101570 63
2005-06-15 06:59 51°19.334 2°56.253 9.9 39 14.6 101560 64
2005-06-15 07:00 51°19.423 2°56.605 9.3 40 14.6 101560 65
2005-06-15 07:01 51°19.512 2°56.961 10 37 14.6 101570 66
2005-06-15 07:02 51°19.601 2°57.314 10.1 45 14.6 101560 65
2005-06-15 07:03 51°19.691 2°57.665 10.3 46 14.6 101570 63
2005-06-15 07:04 51°19.781 2°58.016 10 38 14.7 101560 65
2005-06-15 07:05 51°19.868 2°58.369 11 37 14.6 101570 66
2005-06-15 07:06 51°19.94 2°58.731 10.7 38 14.5 101570 65
2005-06-15 07:07 51°20.013 2°59.092 10.9 46 14.6 101560 63
2005-06-15 07:08 51°20.09 2°59.454 11.2 37 14.7 101560 62
2005-06-15 07:09 51°20.165 2°59.817 10.4 40 14.7 101570 65
2005-06-15 07:10 51°20.239 3°0.168 10.3 41 14.7 101570 63
2005-06-15 07:11 51°20.315 3°0.535 9.7 38 14.6 101560 64
2005-06-15 07:12 51°20.388 3°0.891 9.9 41 14.7 101570 64
2005-06-15 07:13 51°20.459 3°1.244 11 41 14.8 101570 64
2005-06-15 07:14 51°20.532 3°1.595 10.2 37 14.9 101570 62
2005-06-15 07:15 51°20.602 3°1.946 10.3 36 14.9 101570 63
2005-06-15 07:16 51°20.674 3°2.3 9 39 14.9 101570 61
2005-06-15 07:17 51°20.758 3°2.654 9.7 37 14.9 101570 63
2005-06-15 07:18 51°20.842 3°3.01 8.7 31 14.9 101570 63
2005-06-15 07:19 51°20.927 3°3.356 9 37 15 101580 64
2005-06-15 07:20 51°21.012 3°3.711 8.3 38 15 101580 62
2005-06-15 07:21 51°21.08 3°3.918 4.7 90 15 101580 63
2005-06-15 07:22 51°21.129 3°3.977 3.7 118 15.1 101590 62
2005-06-15 07:23 51°21.191 3°4.039 3.4 111 15.2 101590 61
2005-06-15 07:24 51°21.255 3°4.133 5 83 15.4 101590 61
2005-06-15 07:25 51°21.305 3°4.249 4.6 76 15.4 101580 62
2005-06-15 07:26 51°21.339 3°4.378 6.5 59 15.5 101590 63
2005-06-15 07:27 51°21.362 3°4.504 6 67 15.5 101590 62
2005-06-15 07:28 51°21.379 3°4.606 5.7 63 15.5 101590 62
2005-06-15 07:29 51°21.393 3°4.693 5.6 66 15.5 101590 59
2005-06-15 07:30 51°21.408 3°4.776 5.1 64 15.5 101590 62
2005-06-15 07:31 51°21.422 3°4.854 5 66 15.6 101590 64
2005-06-15 07:32 51°21.436 3°4.932 4.7 67 15.5 101590 63
2005-06-15 07:33 51°21.448 3°5.01 4.7 66 15.6 101590 62
2005-06-15 07:34 51°21.46 3°5.093 5.2 62 15.6 101590 63
2005-06-15 07:35 51°21.471 3°5.173 5.4 68 15.6 101590 60
2005-06-15 07:36 51°21.482 3°5.251 5.5 69 15.7 101590 59
2005-06-15 07:37 51°21.493 3°5.329 5.9 67 15.8 101590 61
2005-06-15 07:38 51°21.504 3°5.409 6.1 65 15.8 101580 58
2005-06-15 07:39 51°21.516 3°5.487 5.6 70 15.9 101590 61
2005-06-15 07:40 51°21.531 3°5.563 4.9 76 15.9 101590 61
2005-06-15 07:41 51°21.548 3°5.639 4.5 77 15.9 101580 60
2005-06-15 07:42 51°21.565 3°5.716 5.1 81 16 101590 58
2005-06-15 07:43 51°21.582 3°5.794 4.8 80 16 101590 60
2005-06-15 07:44 51°21.598 3°5.873 4.5 79 16 101590 59
2005-06-15 07:45 51°21.616 3°5.95 4.4 82 16 101590 59
2005-06-15 07:46 51°21.636 3°6.03 3.4 78 16 101590 60
2005-06-15 07:47 51°21.655 3°6.109 4.5 69 16.1 101590 63
2005-06-15 07:48 51°21.675 3°6.189 4.3 69 16.1 101590 61
2005-06-15 07:49 51°21.694 3°6.266 5.1 77 16.1 101590 61
2005-06-15 07:50 51°21.713 3°6.342 5.3 72 16.2 101590 58
2005-06-15 07:51 51°21.733 3°6.418 5.3 77 16.3 101590 59
2005-06-15 07:52 51°21.752 3°6.491 5.5 81 16.3 101580 57
2005-06-15 07:53 51°21.771 3°6.562 5.9 81 16.3 101590 56
2005-06-15 07:54 51°21.789 3°6.633 5.4 69 16.4 101580 59
2005-06-15 07:55 51°21.807 3°6.704 4.8 56 16.4 101590 61
2005-06-15 07:56 51°21.824 3°6.788 5.2 49 16.3 101580 62
2005-06-15 07:57 51°21.838 3°6.882 5.3 52 16.3 101590 61
2005-06-15 07:58 51°21.848 3°6.979 5.1 48 16.3 101580 61
2005-06-15 07:59 51°21.859 3°7.08 6 54 16.3 101580 63
2005-06-15 08:00 51°21.882 3°7.253 8.6 50 16.3 101570 58
2005-06-15 08:01 51°21.934 3°7.415 6.2 85 16.3 101580 59
2005-06-15 08:02 51°21.989 3°7.487 5.1 114 16.4 101580 57
2005-06-15 08:03 51°22.037 3°7.529 4.7 127 16.5 101580 59
2005-06-15 08:04 51°22.078 3°7.561 4.3 131 16.5 101590 59
2005-06-15 08:05 51°22.14 3°7.68 8.9 39 16.6 101580 59
2005-06-15 08:06 51°22.072 3°7.843 10.7 351 16.6 101570 57
2005-06-15 08:07 51°21.906 3°7.914 11.7 348 16.7 101550 56
2005-06-15 08:08 51°21.72 3°7.915 12.4 342 16.8 101550 54
2005-06-15 08:09 51°21.532 3°7.902 10.7 346 16.9 101550 55
2005-06-15 08:10 51°21.425 3°7.91 7.6 324 16.9 101560 57
2005-06-15 08:11 51°21.367 3°7.86 7.6 313 16.9 101560 56
2005-06-15 08:12 51°21.32 3°7.798 6.6 303 17 101560 55
2005-06-15 08:13 51°21.278 3°7.724 6.4 302 17 101560 57
2005-06-15 08:14 51°21.242 3°7.642 5.1 298 17.1 101570 56
2005-06-15 08:15 51°21.212 3°7.559 6 290 17.1 101560 58
2005-06-15 08:16 51°21.193 3°7.478 6.5 270 17.1 101560 55
2005-06-15 08:17 51°21.178 3°7.398 5.4 275 17.2 101560 57
2005-06-15 08:18 51°21.165 3°7.317 6.8 278 17.2 101560 57
2005-06-15 08:19 51°21.152 3°7.238 6.2 282 17.2 101570 56
2005-06-15 08:20 51°21.138 3°7.16 6.9 279 17.3 101560 54
2005-06-15 08:21 51°21.124 3°7.081 6.6 271 17.3 101560 55
2005-06-15 08:22 51°21.108 3°7.002 6.5 269 17.3 101560 55
2005-06-15 08:23 51°21.093 3°6.924 5.6 263 17.4 101560 54
2005-06-15 08:24 51°21.081 3°6.849 5.6 269 17.4 101560 55
2005-06-15 08:25 51°21.069 3°6.774 5.5 277 17.4 101560 55
2005-06-15 08:26 51°21.058 3°6.701 7.1 276 17.4 101560 56
2005-06-15 08:27 51°21.046 3°6.629 5.6 280 17.4 101560 56
2005-06-15 08:28 51°21.033 3°6.556 6 279 17.4 101560 56
2005-06-15 08:29 51°21.023 3°6.484 7.1 280 17.4 101560 54
2005-06-15 08:30 51°21.013 3°6.412 6.3 281 17.4 101560 52
2005-06-15 08:31 51°21.002 3°6.342 5.4 280 17.5 101560 53
2005-06-15 08:32 51°20.99 3°6.273 6.1 272 17.6 101560 55
2005-06-15 08:33 51°20.98 3°6.202 5.9 280 17.6 101560 56
2005-06-15 08:34 51°20.971 3°6.132 6.3 281 17.6 101560 55
2005-06-15 08:35 51°20.963 3°6.064 6.3 279 17.6 101560 51
2005-06-15 08:36 51°20.951 3°5.998 5.5 274 17.7 101560 53
2005-06-15 08:37 51°20.941 3°5.928 5.6 276 17.7 101560 54
2005-06-15 08:38 51°20.932 3°5.859 5 284 17.7 101550 54
2005-06-15 08:39 51°20.918 3°5.781 5.4 283 17.7 101560 55
2005-06-15 08:40 51°20.911 3°5.684 6 273 17.7 101560 56
2005-06-15 08:41 51°20.925 3°5.583 4.3 249 17.7 101560 54
2005-06-15 08:42 51°20.962 3°5.492 4.3 231 17.7 101560 54
2005-06-15 08:43 51°21.023 3°5.428 2.2 175 17.6 101570 53
2005-06-15 08:44 51°21.087 3°5.397 4.7 157 17.7 101560 52
2005-06-15 08:45 51°21.14 3°5.398 4.3 142 17.7 101560 53
2005-06-15 08:46 51°21.182 3°5.409 5.3 136 17.6 101560 52
2005-06-15 08:47 51°21.216 3°5.424 5.6 128 17.6 101570 54
2005-06-15 08:48 51°21.25 3°5.446 5.5 130 17.6 101570 54
2005-06-15 08:49 51°21.289 3°5.475 5.6 126 17.6 101560 55
2005-06-15 08:50 51°21.324 3°5.504 5.5 127 17.6 101560 54
2005-06-15 08:51 51°21.356 3°5.525 4.4 136 17.6 101560 56
2005-06-15 08:52 51°21.386 3°5.536 4.8 148 17.6 101560 57
2005-06-15 08:53 51°21.416 3°5.538 4 152 17.5 101560 57
2005-06-15 08:54 51°21.444 3°5.531 3.3 176 17.5 101560 58
2005-06-15 08:55 51°21.468 3°5.515 2.9 203 17.6 101550 57
2005-06-15 08:56 51°21.49 3°5.492 5 213 17.8 101560 54
2005-06-15 08:57 51°21.509 3°5.464 5.4 232 17.8 101560 54
2005-06-15 08:58 51°21.523 3°5.432 3.5 252 17.8 101550 54
2005-06-15 08:59 51°21.535 3°5.399 4.5 261 17.9 101560 54
2005-06-15 09:00 51°21.545 3°5.365 4.3 261 17.9 101550 54
2005-06-15 09:01 51°21.552 3°5.332 4.6 262 17.9 101550 55
2005-06-15 09:02 51°21.558 3°5.299 6.3 267 17.9 101550 56
2005-06-15 09:03 51°21.563 3°5.272 6.5 267 17.9 101550 55
2005-06-15 09:04 51°21.568 3°5.248 6.2 274 17.9 101550 56
2005-06-15 09:05 51°21.584 3°5.178 3.7 220 17.9 101540 55
2005-06-15 09:06 51°21.679 3°5.192 5.6 81 18 101550 54
2005-06-15 09:07 51°21.753 3°5.438 10.5 47 17.9 101530 56
2005-06-15 09:08 51°21.787 3°5.767 9.4 36 17.8 101520 55
2005-06-15 09:09 51°21.834 3°6.106 10.8 35 17.8 101530 56
2005-06-15 09:10 51°21.878 3°6.456 9.8 37 17.7 101530 58
2005-06-15 09:11 51°21.922 3°6.797 10 37 17.7 101520 56
2005-06-15 09:12 51°21.961 3°7.143 11.2 45 17.8 101530 56
2005-06-15 09:13 51°21.999 3°7.484 10.3 34 17.9 101520 55
2005-06-15 09:14 51°22.039 3°7.83 10.7 40 18 101530 51
2005-06-15 09:15 51°22.078 3°8.172 9.9 43 18.1 101530 55
2005-06-15 09:16 51°22.116 3°8.514 11.1 43 18 101520 53
2005-06-15 09:17 51°22.155 3°8.852 10.1 46 18.2 101520 48
2005-06-15 09:18 51°22.196 3°9.197 10.8 44 18.2 101530 52
2005-06-15 09:19 51°22.234 3°9.534 13.2 49 18.3 101510 48
2005-06-15 09:20 51°22.272 3°9.872 11.1 43 18.5 101520 49
2005-06-15 09:21 51°22.313 3°10.204 12.6 33 18.5 101510 45
2005-06-15 09:22 51°22.357 3°10.526 13 45 18.6 101510 47
2005-06-15 09:23 51°22.394 3°10.856 13.6 51 18.6 101500 45
2005-06-15 09:24 51°22.426 3°11.193 13.2 57 18.6 101520 48
2005-06-15 09:25 51°22.465 3°11.527 11.5 44 18.6 101510 47
2005-06-15 09:26 51°22.503 3°11.857 9.6 57 18.6 101520 47
2005-06-15 09:27 51°22.542 3°12.196 11.2 50 18.7 101520 50
2005-06-15 09:28 51°22.58 3°12.527 12.5 52 18.7 101510 47
2005-06-15 09:29 51°22.62 3°12.86 13.1 55 18.6 101510 49
2005-06-15 09:30 51°22.658 3°13.192 12 52 18.6 101510 47
2005-06-15 09:31 51°22.703 3°13.521 10.6 49 18.6 101520 51
2005-06-15 09:32 51°22.763 3°13.836 11.2 56 18.5 101510 51
2005-06-15 09:33 51°22.828 3°14.151 10.5 54 18.5 101520 47
2005-06-15 09:34 51°22.894 3°14.468 11.2 55 18.6 101520 48
2005-06-15 09:35 51°22.94 3°14.793 9.9 57 18.6 101510 46
2005-06-15 09:36 51°22.984 3°15.112 10.6 51 18.7 101520 51
2005-06-15 09:37 51°23.029 3°15.428 13 56 18.6 101500 49
2005-06-15 09:38 51°23.072 3°15.741 10.9 59 18.7 101520 46
2005-06-15 09:39 51°23.13 3°16.058 9.5 54 18.7 101520 50
2005-06-15 09:40 51°23.186 3°16.366 12.1 58 18.7 101500 45
2005-06-15 09:41 51°23.245 3°16.677 11.7 59 18.8 101510 45
2005-06-15 09:42 51°23.301 3°16.988 9 51 19 101520 48
2005-06-15 09:43 51°23.359 3°17.3 11.7 59 18.9 101510 47
2005-06-15 09:44 51°23.423 3°17.606 10.9 62 19 101510 47
2005-06-15 09:45 51°23.496 3°17.912 10.4 56 19 101520 51
2005-06-15 09:46 51°23.552 3°18.218 11.6 56 18.9 101500 48
2005-06-15 09:47 51°23.593 3°18.528 10.9 56 19 101500 45
2005-06-15 09:48 51°23.634 3°18.842 11 64 19 101500 47
2005-06-15 09:49 51°23.666 3°19.124 8.9 56 19 101510 48
2005-06-15 09:50 51°23.679 3°19.253 7.5 83 19 101520 51
2005-06-15 09:51 51°23.7 3°19.341 7.4 73 18.9 101520 48
2005-06-15 09:52 51°23.71 3°19.424 8 67 19 101520 48
2005-06-15 09:53 51°23.712 3°19.497 9 59 19 101510 46
2005-06-15 09:54 51°23.709 3°19.566 8.4 72 19.1 101510 47
2005-06-15 09:55 51°23.711 3°19.635 8 68 19.1 101510 45
2005-06-15 09:56 51°23.714 3°19.702 4.8 78 19.1 101510 49
2005-06-15 09:57 51°23.718 3°19.77 7.6 69 19.1 101510 48
2005-06-15 09:58 51°23.717 3°19.836 9.1 82 19.1 101510 44
2005-06-15 09:59 51°23.715 3°19.9 7.3 77 19.2 101510 49
2005-06-15 10:00 51°23.712 3°19.967 7.1 65 19.1 101510 47
2005-06-15 10:01 51°23.713 3°20.034 6.6 78 19.1 101510 49
2005-06-15 10:02 51°23.712 3°20.1 6.1 76 19 101510 51
2005-06-15 10:03 51°23.709 3°20.167 8.4 82 19 101510 51
2005-06-15 10:04 51°23.705 3°20.233 6 79 19 101510 50
2005-06-15 10:05 51°23.702 3°20.301 6.6 78 19.1 101510 47
2005-06-15 10:06 51°23.7 3°20.368 8.3 84 19.2 101510 49
2005-06-15 10:07 51°23.697 3°20.435 6.1 74 19.1 101510 51
2005-06-15 10:08 51°23.695 3°20.503 5.1 79 19.1 101510 51
2005-06-15 10:09 51°23.695 3°20.571 6.8 80 19 101520 53
2005-06-15 10:10 51°23.694 3°20.638 6.5 80 19 101510 52
2005-06-15 10:11 51°23.693 3°20.705 7.1 68 19 101520 51
2005-06-15 10:12 51°23.688 3°20.771 7.7 70 19.1 101510 51
2005-06-15 10:13 51°23.683 3°20.836 7.4 81 19.3 101510 46
2005-06-15 10:14 51°23.676 3°20.902 6.8 74 19.4 101510 47
2005-06-15 10:15 51°23.669 3°20.967 8.4 80 19.4 101510 49
2005-06-15 10:16 51°23.663 3°21.032 9 66 19.4 101500 50
2005-06-15 10:17 51°23.658 3°21.097 7.6 81 19.4 101500 47
2005-06-15 10:18 51°23.651 3°21.161 8.3 76 19.4 101500 49
2005-06-15 10:19 51°23.644 3°21.226 7.5 78 19.3 101500 48
2005-06-15 10:20 51°23.637 3°21.291 8.7 84 19.3 101500 50
2005-06-15 10:21 51°23.633 3°21.355 6.5 78 19.3 101500 49
2005-06-15 10:22 51°23.631 3°21.42 10 86 19.3 101500 50
2005-06-15 10:23 51°23.629 3°21.485 9.4 91 19.4 101490 49
2005-06-15 10:24 51°23.622 3°21.55 7.8 68 19.5 101500 48
2005-06-15 10:25 51°23.606 3°21.611 7.1 68 19.5 101500 48
2005-06-15 10:26 51°23.582 3°21.665 7.4 66 19.6 101500 48
2005-06-15 10:27 51°23.556 3°21.697 7.7 65 19.6 101500 49
2005-06-15 10:28 51°23.535 3°21.702 8.2 65 19.6 101490 45
2005-06-15 10:29 51°23.512 3°21.704 8.2 33 19.7 101500 47
2005-06-15 10:30 51°23.448 3°21.636 10.3 319 19.6 101490 48
2005-06-15 10:31 51°23.422 3°21.468 9.7 291 19.8 101490 48
2005-06-15 10:32 51°23.422 3°21.324 5.7 271 20 101500 44
2005-06-15 10:33 51°23.425 3°21.195 8.8 278 20.1 101500 45
2005-06-15 10:34 51°23.429 3°21.081 7.7 281 20.1 101490 46
2005-06-15 10:35 51°23.433 3°20.975 9.6 285 20.1 101490 47
2005-06-15 10:36 51°23.439 3°20.872 8.4 267 20.1 101500 50
2005-06-15 10:37 51°23.446 3°20.772 7.3 263 20 101500 50
2005-06-15 10:38 51°23.456 3°20.673 6.8 262 20 101500 46
2005-06-15 10:39 51°23.467 3°20.576 5.9 259 20 101500 47
2005-06-15 10:40 51°23.478 3°20.482 6 260 20.1 101490 46
2005-06-15 10:41 51°23.492 3°20.383 6 261 20 101500 46
2005-06-15 10:42 51°23.507 3°20.287 5.7 260 20.1 101490 45
2005-06-15 10:43 51°23.523 3°20.191 4.5 261 20.1 101500 48
2005-06-15 10:44 51°23.54 3°20.094 5.2 254 20 101500 48
2005-06-15 10:45 51°23.554 3°19.997 6.8 261 20 101500 46
2005-06-15 10:46 51°23.568 3°19.9 6.7 259 20.1 101500 45
2005-06-15 10:47 51°23.582 3°19.803 8.5 273 20.1 101500 48
2005-06-15 10:48 51°23.594 3°19.706 9.9 270 20 101500 49
2005-06-15 10:49 51°23.607 3°19.609 7.6 274 20 101490 49
2005-06-15 10:50 51°23.619 3°19.514 8.9 279 20 101500 48
2005-06-15 10:51 51°23.634 3°19.421 9.4 279 20 101490 46
2005-06-15 10:52 51°23.648 3°19.329 9.7 290 20.1 101490 44
2005-06-15 10:53 51°23.661 3°19.237 9.9 288 20.2 101490 47
2005-06-15 10:54 51°23.672 3°19.146 8.6 291 20.2 101490 45
2005-06-15 10:55 51°23.68 3°19.055 8.1 299 20.2 101490 46
2005-06-15 10:56 51°23.687 3°18.965 8.6 301 20.2 101490 46
2005-06-15 10:57 51°23.691 3°18.875 7.7 298 20.2 101490 46
2005-06-15 10:58 51°23.696 3°18.784 8.1 290 20.2 101490 46
2005-06-15 10:59 51°23.699 3°18.694 8.7 304 20.2 101500 43
2005-06-15 11:00 51°23.703 3°18.6 8.1 301 20.3 101490 45
2005-06-15 11:01 51°23.709 3°18.491 7.9 293 20.3 101500 47
2005-06-15 11:02 51°23.73 3°18.36 8.2 282 20.2 101500 46
2005-06-15 11:03 51°23.761 3°18.221 8.4 266 20.2 101500 48
2005-06-15 11:04 51°23.805 3°18.082 8.1 268 20.2 101500 47
2005-06-15 11:05 51°23.893 3°17.914 4.8 250 20.1 101500 48
2005-06-15 11:06 51°23.987 3°17.858 3.5 188 20.1 101510 48
2005-06-15 11:07 51°24.041 3°17.851 5.9 147 20 101510 49
2005-06-15 11:08 51°24.073 3°17.853 6.5 135 19.9 101510 50
2005-06-15 11:09 51°24.097 3°17.852 6.9 137 19.8 101510 49
2005-06-15 11:10 51°24.127 3°17.843 6.3 159 19.8 101510 47
2005-06-15 11:11 51°24.164 3°17.812 5.4 201 19.9 101510 45
2005-06-15 11:12 51°24.2 3°17.753 5.8 247 20.2 101500 48
2005-06-15 11:13 51°24.228 3°17.684 5.8 250 20 101500 50
2005-06-15 11:14 51°24.252 3°17.616 5 257 19.8 101510 51
2005-06-15 11:15 51°24.273 3°17.55 7.1 259 19.7 101500 50
2005-06-15 11:16 51°24.294 3°17.483 5.6 259 19.8 101510 49
2005-06-15 11:17 51°24.313 3°17.417 9.5 269 19.8 101500 48
2005-06-15 11:18 51°24.331 3°17.351 10 272 19.8 101500 49
2005-06-15 11:19 51°24.347 3°17.29 9.2 273 19.9 101500 49
2005-06-15 11:20 51°24.362 3°17.232 6.9 287 19.8 101500 51
2005-06-15 11:21 51°24.375 3°17.175 7.9 289 19.8 101500 51
2005-06-15 11:22 51°24.389 3°17.121 7.7 289 19.7 101500 52
2005-06-15 11:23 51°24.403 3°17.07 8.1 286 19.5 101500 54
2005-06-15 11:24 51°24.42 3°17.002 8.1 287 19.4 101500 53
2005-06-15 11:25 51°24.493 3°16.842 7.5 285 19.3 101500 55
2005-06-15 11:26 51°24.616 3°16.654 9.6 296 19.2 101500 52
2005-06-15 11:27 51°24.753 3°16.402 11 311 19.3 101490 53
2005-06-15 11:28 51°24.875 3°16.14 10.8 301 19.3 101480 51
2005-06-15 11:29 51°24.986 3°15.825 11.2 316 19.4 101490 51
2005-06-15 11:30 51°25.066 3°15.458 13.1 329 19.4 101480 53
2005-06-15 11:31 51°25.127 3°15.082 13.3 326 19.5 101480 51
2005-06-15 11:32 51°25.181 3°14.706 13 334 19.4 101480 53
2005-06-15 11:33 51°25.235 3°14.322 13.8 335 19.3 101480 55
2005-06-15 11:34 51°25.288 3°13.947 14.6 330 19.1 101490 56
2005-06-15 11:35 51°25.343 3°13.578 15.6 331 18.9 101490 57
2005-06-15 11:36 51°25.4 3°13.209 14.7 335 18.8 101490 57
2005-06-15 11:37 51°25.456 3°12.843 14.1 339 18.7 101500 60
2005-06-15 11:38 51°25.512 3°12.48 16 338 18.4 101500 60
2005-06-15 11:39 51°25.567 3°12.126 15.5 333 18.3 101490 61
2005-06-15 11:40 51°25.619 3°11.77 15 332 18.1 101500 63
2005-06-15 11:41 51°25.669 3°11.425 15.9 335 18 101490 63
2005-06-15 11:42 51°25.745 3°11.093 16.2 325 17.8 101490 64
2005-06-15 11:43 51°25.872 3°10.818 16.1 329 17.6 101500 67
2005-06-15 11:44 51°26 3°10.542 15 313 17.3 101500 68
2005-06-15 11:45 51°26.142 3°10.274 17.2 323 17.1 101500 68
2005-06-15 11:46 51°26.287 3°10.005 15.3 322 16.8 101510 69
2005-06-15 11:47 51°26.432 3°9.725 16.5 225 16.6 101500 70
2005-06-15 11:48 51°26.569 3°9.466 14.2 310 16.4 101490 70
2005-06-15 11:49 51°26.677 3°9.449 9.1 233 16.2 101550 72
2005-06-15 11:50 51°26.751 3°9.528 8.7 236 16.1 101570 73
2005-06-15 11:51 51°26.826 3°9.563 7.4 254 15.9 101550 74
2005-06-15 11:52 51°26.887 3°9.599 8.3 220 15.9 101560 75
2005-06-15 11:53 51°26.93 3°9.665 8.1 214 15.8 101570 77
2005-06-15 11:54 51°26.973 3°9.73 8.6 212 15.7 101570 77
2005-06-15 11:55 51°27.013 3°9.79 10 215 15.7 101570 79
2005-06-15 11:56 51°27.052 3°9.847 9.5 207 15.6 101570 79
2005-06-15 11:57 51°27.086 3°9.909 9.4 198 15.6 101570 80
2005-06-15 11:58 51°27.117 3°9.977 5 193 15.6 101560 80
2005-06-15 11:59 51°27.145 3°10.045 5.4 196 15.8 101570 80
2005-06-15 12:00 51°27.172 3°10.111 5.8 189 16 101570 80
2005-06-15 12:01 51°27.203 3°10.175 5.1 194 16.2 101580 78
2005-06-15 12:02 51°27.237 3°10.239 7.7 204 16.1 101580 78
2005-06-15 12:03 51°27.27 3°10.298 6.5 195 15.9 101580 79
2005-06-15 12:04 51°27.304 3°10.359 7.1 200 15.8 101570 79
2005-06-15 12:05 51°27.338 3°10.421 8.2 204 15.7 101580 79
2005-06-15 12:06 51°27.371 3°10.48 4.4 194 15.8 101580 79
2005-06-15 12:07 51°27.405 3°10.543 5.6 185 16 101580 79
2005-06-15 12:08 51°27.436 3°10.603 5.9 185 16.1 101580 79
2005-06-15 12:09 51°27.468 3°10.664 5.1 189 16.3 101580 78
2005-06-15 12:10 51°27.499 3°10.727 8 198 16.4 101580 76
2005-06-15 12:11 51°27.533 3°10.788 7.4 194 16.2 101590 76
2005-06-15 12:12 51°27.566 3°10.85 6.3 201 16 101580 75
2005-06-15 12:13 51°27.601 3°10.912 6.5 201 15.8 101590 76
2005-06-15 12:14 51°27.636 3°10.974 8.8 196 15.7 101580 78
2005-06-15 12:15 51°27.67 3°11.037 8.1 207 15.6 101580 77
2005-06-15 12:16 51°27.702 3°11.098 5.8 196 15.6 101580 78
2005-06-15 12:17 51°27.734 3°11.16 6.2 202 15.6 101580 79
2005-06-15 12:18 51°27.765 3°11.231 6.5 183 15.7 101590 78
2005-06-15 12:19 51°27.788 3°11.316 9.6 171 15.7 101590 77
2005-06-15 12:20 51°27.803 3°11.408 7.3 154 15.6 101590 77
2005-06-15 12:21 51°27.809 3°11.499 7.4 146 15.6 101590 78
2005-06-15 12:22 51°27.803 3°11.566 8.3 142 15.6 101590 79
2005-06-15 12:23 51°27.79 3°11.612 9.4 134 15.5 101590 80
2005-06-15 12:24 51°27.765 3°11.651 10.3 83 15.5 101580 80
2005-06-15 12:25 51°27.704 3°11.639 11 35 15.5 101560 80
2005-06-15 12:26 51°27.648 3°11.567 10.8 15 15.5 101560 80
2005-06-15 12:27 51°27.607 3°11.478 12.7 6 15.5 101570 79
2005-06-15 12:28 51°27.571 3°11.384 11.5 360 15.5 101560 79
2005-06-15 12:29 51°27.539 3°11.288 11.1 355 15.6 101560 79
2005-06-15 12:30 51°27.506 3°11.198 12 358 15.6 101560 79
2005-06-15 12:31 51°27.471 3°11.115 10.8 359 15.6 101570 79
2005-06-15 12:32 51°27.443 3°11.045 11 2 15.6 101570 80
2005-06-15 12:33 51°27.419 3°10.984 11.1 355 15.6 101570 80
2005-06-15 12:34 51°27.395 3°10.922 10 356 15.5 101570 80
2005-06-15 12:35 51°27.367 3°10.856 15.4 356 15.5 101580 81
2005-06-15 12:36 51°27.34 3°10.789 13.6 353 15.4 101570 81
2005-06-15 12:37 51°27.315 3°10.725 12.6 352 15.3 101570 81
2005-06-15 12:38 51°27.288 3°10.661 12.7 355 15.3 101570 80
2005-06-15 12:39 51°27.262 3°10.6 12.3 351 15.2 101570 79
2005-06-15 12:40 51°27.237 3°10.537 10.4 352 15.2 101570 79
2005-06-15 12:41 51°27.211 3°10.473 11.9 347 15.2 101570 78
2005-06-15 12:42 51°27.183 3°10.406 11.5 354 15.2 101570 78
2005-06-15 12:43 51°27.155 3°10.341 10.8 350 15.2 101580 78
2005-06-15 12:44 51°27.128 3°10.275 11.5 349 15.2 101570 77
2005-06-15 12:45 51°27.1 3°10.208 12 345 15.2 101570 78
2005-06-15 12:46 51°27.074 3°10.144 10.2 346 15.2 101580 77
2005-06-15 12:47 51°27.045 3°10.077 10.7 348 15.3 101580 78
2005-06-15 12:48 51°27.014 3°10.012 11.2 350 15.2 101580 79
2005-06-15 12:49 51°26.984 3°9.946 10.9 351 15.1 101580 79
2005-06-15 12:50 51°26.954 3°9.876 11.2 353 15.1 101580 78
2005-06-15 12:51 51°26.923 3°9.808 11.3 350 15.1 101580 79
2005-06-15 12:52 51°26.894 3°9.741 9 348 15.1 101580 79
2005-06-15 12:53 51°26.868 3°9.679 9.6 341 15.1 101580 80
2005-06-15 12:54 51°26.844 3°9.622 9.3 341 15.1 101580 80
2005-06-15 12:55 51°26.82 3°9.566 8.9 337 15.1 101580 80
2005-06-15 12:56 51°26.795 3°9.509 9.3 341 15.1 101590 81
2005-06-15 12:57 51°26.765 3°9.439 10.8 340 15.1 101580 81
2005-06-15 12:58 51°26.741 3°9.36 10.2 318 15 101580 80
2005-06-15 12:59 51°26.731 3°9.27 9.8 227 14.9 101580 81
2005-06-15 13:00 51°26.732 3°9.178 9.6 299 14.9 101570 81
2005-06-15 13:01 51°26.741 3°9.111 9.6 295 14.8 101580 82
2005-06-15 13:02 51°26.748 3°9.067 10.3 283 14.8 101580 82
2005-06-15 13:03 51°26.753 3°9.036 9.1 286 14.8 101580 82
2005-06-15 13:04 51°26.757 3°9.013 10.2 276 14.8 101580 83
2005-06-15 13:05 51°26.76 3°8.993 11 282 14.7 101580 83
2005-06-15 13:06 51°26.763 3°8.965 9.3 290 14.7 101570 84
2005-06-15 13:07 51°26.763 3°8.926 9.4 307 14.7 101580 83
2005-06-15 13:08 51°26.76 3°8.884 9.7 305 14.7 101570 84
2005-06-15 13:09 51°26.754 3°8.843 8.9 314 14.7 101570 84
2005-06-15 13:10 51°26.744 3°8.802 11.2 320 14.7 101580 84
2005-06-15 13:11 51°26.732 3°8.762 10.1 321 14.7 101570 83
2005-06-15 13:12 51°26.718 3°8.726 9.8 335 14.7 101580 83
2005-06-15 13:13 51°26.704 3°8.695 10.7 343 14.7 101580 83
2005-06-15 13:14 51°26.688 3°8.67 9.9 340 14.6 101570 81
2005-06-15 13:15 51°26.676 3°8.652 10.1 335 14.7 101580 81
2005-06-15 13:16 51°26.673 3°8.641 9.1 320 14.6 101580 82
2005-06-15 13:17 51°26.674 3°8.636 8.6 290 14.6 101580 82
2005-06-15 13:18 51°26.674 3°8.633 9.7 275 14.6 101590 83
2005-06-15 13:19 51°26.675 3°8.551 11.3 319 14.7 101590 84
2005-06-15 13:20 51°26.578 3°8.34 16.8 345 14.6 101570 84
2005-06-15 13:21 51°26.423 3°8.084 15.2 353 14.6 101580 84
2005-06-15 13:22 51°26.239 3°7.861 16 350 14.6 101570 84
2005-06-15 13:23 51°26.056 3°7.639 16 346 14.7 101570 85
2005-06-15 13:24 51°25.87 3°7.405 14.9 351 14.7 101570 85
2005-06-15 13:25 51°25.684 3°7.17 17.5 351 14.6 101570 86
2005-06-15 13:26 51°25.5 3°6.935 16.6 352 14.6 101560 86
2005-06-15 13:27 51°25.317 3°6.701 17.6 353 14.5 101570 85
2005-06-15 13:28 51°25.134 3°6.467 16.1 350 14.5 101580 85
2005-06-15 13:29 51°24.949 3°6.235 17.2 350 14.4 101580 85
2005-06-15 13:30 51°24.768 3°6.006 17 355 14.4 101580 85
2005-06-15 13:31 51°24.59 3°5.778 16.9 359 14.4 101580 85
2005-06-15 13:32 51°24.411 3°5.548 16.2 356 14.4 101580 85
2005-06-15 13:33 51°24.235 3°5.313 17.7 349 14.4 101580 86
2005-06-15 13:34 51°24.059 3°5.074 15.9 354 14.5 101590 86
2005-06-15 13:35 51°23.885 3°4.838 17.2 355 14.4 101580 86
2005-06-15 13:36 51°23.71 3°4.594 16.6 352 14.5 101570 87
2005-06-15 13:37 51°23.533 3°4.353 16.5 354 14.5 101600 87
2005-06-15 13:38 51°23.355 3°4.114 16.3 350 14.5 101590 87
2005-06-15 13:39 51°23.177 3°3.875 14.4 352 14.4 101570 87
2005-06-15 13:40 51°22.997 3°3.633 15.1 351 14.5 101570 88
2005-06-15 13:41 51°22.833 3°3.374 15.2 346 14.5 101560 88
2005-06-15 13:42 51°22.679 3°3.097 13.4 342 14.5 101550 88
2005-06-15 13:43 51°22.529 3°2.811 15.6 337 14.5 101560 89
2005-06-15 13:44 51°22.385 3°2.512 14.3 338 14.5 101560 89
2005-06-15 13:45 51°22.247 3°2.213 13.7 339 14.5 101560 89
2005-06-15 13:46 51°22.107 3°1.914 13.5 340 14.5 101550 89
2005-06-15 13:47 51°21.963 3°1.616 14.7 335 14.5 101560 90
2005-06-15 13:48 51°21.818 3°1.322 14.1 339 14.6 101560 90
2005-06-15 13:49 51°21.676 3°1.028 14.9 334 14.5 101550 90
2005-06-15 13:50 51°21.532 3°0.732 14.3 333 14.6 101540 90
2005-06-15 13:51 51°21.388 3°0.432 14.2 334 14.6 101540 90
2005-06-15 13:52 51°21.245 3°0.137 13.6 338 14.7 101530 89
2005-06-15 13:53 51°21.1 2°59.839 14.8 338 14.7 101550 89
2005-06-15 13:54 51°20.943 2°59.558 17 341 14.8 101560 89
2005-06-15 13:55 51°20.787 2°59.278 15.3 338 14.8 101560 89
2005-06-15 13:56 51°20.63 2°58.995 14.6 338 14.8 101560 88
2005-06-15 13:57 51°20.474 2°58.715 15.6 345 14.9 101550 88
2005-06-15 13:58 51°20.316 2°58.431 14.7 345 14.9 101550 87
2005-06-15 13:59 51°20.16 2°58.148 17.6 343 15 101550 87
2005-06-15 14:00 51°20.004 2°57.867 17 344 15 101550 87
2005-06-15 14:01 51°19.848 2°57.583 15.1 341 15 101550 87
2005-06-15 14:02 51°19.689 2°57.296 16.7 339 15 101550 87
2005-06-15 14:03 51°19.532 2°57.01 16.7 336 15.1 101540 87
2005-06-15 14:04 51°19.374 2°56.725 17.5 340 15.1 101540 87
2005-06-15 14:05 51°19.216 2°56.439 16.3 339 15.1 101540 87
2005-06-15 14:06 51°19.061 2°56.157 15.3 343 15.1 101540 87
2005-06-15 14:07 51°18.905 2°55.877 14.6 337 15.1 101540 87
2005-06-15 14:08 51°18.749 2°55.595 17.4 340 15.2 101540 87
2005-06-15 14:09 51°18.586 2°55.325 15 343 15.1 101530 87
2005-06-15 14:10 51°18.416 2°55.058 16.5 340 15.1 101530 88
2005-06-15 14:11 51°18.251 2°54.799 14.7 340 15.2 101520 88
2005-06-15 14:12 51°18.083 2°54.535 17.5 340 15.2 101530 88
2005-06-15 14:13 51°17.912 2°54.281 16.5 347 15.2 101520 88
2005-06-15 14:14 51°17.731 2°54.041 18.1 345 15.2 101520 88
2005-06-15 14:15 51°17.551 2°53.816 17.6 344 15.2 101530 88
2005-06-15 14:16 51°17.367 2°53.595 16.6 349 15.2 101530 88
2005-06-15 14:17 51°17.178 2°53.378 17.6 348 15.2 101530 88
2005-06-15 14:18 51°16.967 2°53.259 17.9 10 15.1 101530 88
2005-06-15 14:19 51°16.736 2°53.285 19.4 15 15.2 101550 89
2005-06-15 14:20 51°16.51 2°53.324 20.1 14 15.1 101540 89
2005-06-15 14:21 51°16.29 2°53.366 18.9 20 15.1 101530 89
2005-06-15 14:22 51°16.078 2°53.45 16.1 26 15.1 101540 90
2005-06-15 14:23 51°15.871 2°53.568 16.4 21 15 101520 90
2005-06-15 14:24 51°15.662 2°53.697 15.7 24 15 101530 90
2005-06-15 14:25 51°15.461 2°53.827 17 23 15 101530 90
2005-06-15 14:26 51°15.267 2°53.984 17 25 15 101520 90
2005-06-15 14:27 51°15.077 2°54.15 13.4 29 15 101530 90
2005-06-15 14:28 51°14.886 2°54.321 15.8 38 15 101540 90
2005-06-15 14:29 51°14.706 2°54.518 15.9 43 15 101530 90
2005-06-15 14:30 51°14.546 2°54.751 16.4 51 15 101540 90
2005-06-15 14:31 51°14.4 2°54.997 12.2 54 15 101550 90
2005-06-15 14:32 51°14.302 2°55.19 6.5 21 15 101590 90
2005-06-15 14:33 51°14.233 2°55.305 9.2 39 15 101580 90
2005-06-15 14:34 51°14.151 2°55.416 10.1 44 15 101590 90
2005-06-15 14:35 51°14.059 2°55.517 12.2 17 15 101590 90
2005-06-15 14:36 51°13.936 2°55.596 10.9 8 15.1 101570 90
2005-06-15 14:37 51°13.797 2°55.66 6.6 19 15.1 101570 90
2005-06-15 14:38 51°13.724 2°55.767 7 64 15.1 101590 91
2005-06-15 14:39 51°13.683 2°55.865 4.6 25 15.1 101590 91
2005-06-15 14:40 51°13.64 2°55.959 5.2 21 15.1 101590 92
2005-06-15 14:41 51°13.61 2°56.044 5.8 44 15.1 101590 92
2005-06-15 14:42 51°13.6 2°56.097 6.3 47 15.1 101590 92
2005-06-15 14:43 51°13.597 2°56.107 5.6 76 15.1 101590 93